Regional Weather Roundup
Issued by NWS

Home | Current Version | Previous Version | Graphics & Text | Print | Product List | Glossary On
Versions: 1 2 3 4 5 6 7 8 9 10 11 12 13 14 15 16 17 18 19 20 21 22 23 24 25 26 27 28 29 30 31 32 33 34 35 36 37 38 39 40 41 42 43 44 45 46 47 48 49 50
000
ASUS43 KBIS 250901
RWRND

NORTH DAKOTA REGIONAL WEATHER ROUNDUP
NATIONAL WEATHER SERVICE BISMARCK ND
400 AM CDT MON MAY 25 2015

NOTE: "FAIR" INDICATES FEW OR NO CLOUDS BELOW 12,000 FEET WITH NO
SIGNIFICANT WEATHER AND/OR OBSTRUCTIONS TO VISIBILITY.


NDZ001>003-009>011-017-251000-
NORTHWEST NORTH DAKOTA

CITY           SKY/WX    TMP DP  RH WIND       PRES   REMARKS
WILLISTON      PTCLDY    43  40  89 CALM      29.88F
MINOT          CLOUDY    54  47  77 SW5       29.85F
MINOT AFB      CLOUDY    52  52 100 NW6       29.85F
$$

NDZ018>021-031>035-040>046-251000-
SOUTHWEST NORTH DAKOTA

CITY           SKY/WX    TMP DP  RH WIND       PRES   REMARKS
BISMARCK       LGT RAIN  55  54  96 NE6       29.85F
DICKINSON      CLOUDY    54  49  83 N6        29.86S
GARRISON         N/A     56  51  84 CALM      29.86F
HETTINGER ARPT RAIN      53  51  93 NE6       29.86S FOG
$$

NDZ004>008-012>016-024-026-027-054-251000-
NORTHEAST NORTH DAKOTA

CITY           SKY/WX    TMP DP  RH WIND       PRES   REMARKS
GRAND FORKS    CLOUDY    54  51  90 NW8       29.82F
GRND FRKS AFB  CLOUDY    54  51  89 CALM      29.82F
DEVILS LAKE    CLOUDY    55  50  82 N6        29.83F
$$

NDZ022-023-025-028>030-036>039-047>053-251000-
SOUTHEAST NORTH DAKOTA

CITY           SKY/WX    TMP DP  RH WIND       PRES   REMARKS
FARGO          LGT RAIN  58  56  93 N8        29.81F FOG
JAMESTOWN      LGT RAIN  56  55  97 NW7       29.83F
$$




USA.gov is the U.S. government's official web portal to all federal, state and local government web resources and services.